Regional Weather Roundup
Issued by NWS

Home | Current Version | Previous Version | Text Only | Print | Product List | Glossary Off
Versions: 1 2 3 4 5 6 7 8 9 10 11 12 13 14 15 16 17 18 19 20 21 22 23 24 25 26 27 28 29 30 31 32 33 34 35 36 37 38 39 40 41 42 43 44 45 46 47 48 49 50

000
ASUS43 KTOP 250959
RWRKS

WEATHER ROUNDUP FOR KANSAS
NATIONAL WEATHER SERVICE GOODLAND KS
500 AM CDT MON MAY 25 2015

NOTE:  "FAIR" INDICATES FEW OR NO CLOUDS BELOW 12,000 FEET WITH NO
SIGNIFICANT WEATHER AND/OR OBSTRUCTIONS TO VISIBILITY.

KSZ001>006-013>018-027>032-041>047-251100-
NORTHWEST KANSAS

CITY           SKY/WX    TMP DP  RH WIND       PRES   REMARKS
GOODLAND       PTCLDY    47  45  93 W9        29.81R
HAYS           CLOUDY    55  48  76 S9        29.77R
HILL CITY      CLOUDY    53  52  96 W5        29.79R
RUSSELL        CLOUDY    57  55  93 SE15      29.72F
$$

KSZ061>065-074>080-084>089-251100-
SOUTHWEST KANSAS

CITY           SKY/WX    TMP DP  RH WIND       PRES   REMARKS
DODGE CITY     PTCLDY    54  51  90 SE15      29.78S
ELKHART          N/A     49  45  87 W7          N/A
GARDEN CITY    CLOUDY    55  54  96 CALM      29.77R
GREAT BEND     CLOUDY    55  52  88 SE8       29.77F
LIBERAL        PTCLDY    54  48  82 NW9       29.80R
$$

KSZ066>073-081>083-090>101-251100-
SOUTHEAST KANSAS

CITY           SKY/WX    TMP DP  RH WIND       PRES   REMARKS
CHANUTE        CLOUDY    61  61 100 S13G18    29.87S FOG
COFFEYVILLE    CLOUDY    62  62 100 SE6       29.88S FOG
HUTCHINSON     TSTM      59  54  83 VRB6      29.83F
NEWTON         CLOUDY    57  54  88 W15G23    29.91R
PARSONS        CLOUDY    62  62 100 SE6       29.88F FOG
WICHITA INTL   CLOUDY    62  60  93 S8        29.85R
WICHITA JABRA  CLOUDY    61  60  97 S15       29.82R
WINFIELD       CLOUDY    62  62 100 SE10      29.84S FOG
$$

KSZ007>012-019>026-033>040-048>060-102>105-251100-
NORTHEAST KANSAS

CITY           SKY/WX    TMP DP  RH WIND       PRES   REMARKS
CONCORDIA      TSTM      60  57  89 SW14      29.85R
EMPORIA        PTCLDY    58  57  97 S12       29.83R
LAWRENCE       PTCLDY    60  58  92 S7        29.86S
MANHATTAN      CLOUDY    58  57  97 CALM      29.84R
OLATHE IND     PTCLDY    60  59  96 S9        29.89R
OLATHE EXE     MOCLDY    60  60 100 S9        29.88R
SALINA         LGT RAIN  59  56  89 N8        29.85F
TOPEKA BILLARD MOCLDY    61  60  97 CALM      29.85R
TOPEKA FORBES  CLOUDY    62  59  90 S8        29.84R
$$



USA.gov is the U.S. government's official web portal to all federal, state and local government web resources and services.